Location: ????????
(60.4333°N, 46.4710°E)
Time: 19:06:41
(UTC+00:00)

Cosmos 1862 - Pass Details

Date: 25 November 2020
Orbit: 537 x 556 km, 82.5° (Epoch: 17 January)

Event Time Altitude Azimuth Distance (km) Brightness Sun altitude
Rises 13:58:17 0° 344° (NNW) 2,756 6.9 -13.0°
Reaches altitude 10° 14:00:29 10° 341° (NNW) 1,854 6.0 -13.2°
Maximum altitude 14:04:30 62° 261° (W) 633 3.9 -13.7°
Drops below altitude 10° 14:08:29 10° 181° (S) 1,829 6.2 -14.2°
Sets 14:10:39 0° 178° (S) 2,715 7.1 -14.4°
